Time,TemperatureF,DewpointF,PressureIn,WindDirection,WindDirectionDegrees,WindSpeedMPH,WindSpeedGustMPH,Humidity,HourlyPrecipIn,Conditions,Clouds,dailyrainin,SoftwareType,DateUTC
2013-05-12 00:03:00,-999.0,-99.9,30.04,South,183,4.0,5.0,-999,-99.99,,,-99.99,,2013-05-12 04:03:00,
2013-05-12 00:12:00,79.0,-99.9,30.05,South,190,2.0,4.0,-999,-99.99,,,-99.99,,2013-05-12 04:12:00,
2013-05-12 00:23:00,79.0,-99.9,30.05,West,260,6.0,7.0,-999,-99.99,,,-99.99,,2013-05-12 04:23:00,
2013-05-12 00:33:00,79.0,-99.9,30.05,WNW,289,6.0,7.0,-999,-99.99,,,-99.99,,2013-05-12 04:33:00,
2013-05-12 00:43:00,79.0,-99.9,30.05,WNW,287,5.0,7.0,-999,-99.99,,,-99.99,,2013-05-12 04:43:00,
2013-05-12 00:52:00,78.0,-99.9,30.04,NW,306,2.0,5.0,-999,-99.99,,,-99.99,,2013-05-12 04:52:00,
2013-05-12 01:02:00,78.0,-99.9,30.04,West,271,2.0,4.0,-999,-99.99,,,-99.99,,2013-05-12 05:02:00,
2013-05-12 01:12:00,78.0,-99.9,30.04,SW,228,1.0,3.0,-999,-99.99,,,-99.99,,2013-05-12 05:12:00,
2013-05-12 01:22:00,78.0,-99.9,30.03,SSW,195,2.0,4.0,-999,-99.99,,,-99.99,,2013-05-12 05:22:00,
2013-05-12 01:32:00,78.0,-99.9,30.03,South,178,2.0,4.0,-999,-99.99,,,-99.99,,2013-05-12 05:32:00,
2013-05-12 01:42:00,78.0,-99.9,30.03,SSW,198,2.0,3.0,-999,-99.99,,,-99.99,,2013-05-12 05:42:00,
2013-05-12 01:52:00,78.0,-99.9,30.03,SSW,200,2.0,3.0,-999,-99.99,,,-99.99,,2013-05-12 05:52:00,
2013-05-12 02:02:00,78.0,-99.9,30.03,SSW,195,2.0,4.0,-999,-99.99,,,-99.99,,2013-05-12 06:02:00,
2013-05-12 02:11:00,78.0,-99.9,30.03,SSW,195,1.0,3.0,-999,-99.99,,,-99.99,,2013-05-12 06:11:00,
2013-05-12 02:22:00,78.0,-99.9,30.03,SSW,204,2.0,4.0,-999,-99.99,,,-99.99,,2013-05-12 06:22:00,
2013-05-12 02:32:00,78.0,-99.9,30.03,South,178,3.0,4.0,-999,-99.99,,,-99.99,,2013-05-12 06:32:00,
2013-05-12 02:42:00,78.0,-99.9,30.02,South,175,2.0,4.0,-999,-99.99,,,-99.99,,2013-05-12 06:42:00,
2013-05-12 02:52:00,78.0,-99.9,30.02,South,170,1.0,3.0,-999,-99.99,,,-99.99,,2013-05-12 06:52:00,
2013-05-12 03:02:00,77.0,-99.9,30.01,SE,126,3.0,4.0,-999,-99.99,,,-99.99,,2013-05-12 07:02:00,
2013-05-12 03:11:00,77.0,-99.9,30.01,SE,137,3.0,4.0,-999,-99.99,,,-99.99,,2013-05-12 07:11:00,
2013-05-12 03:22:00,77.0,-99.9,30.01,SE,133,3.0,4.0,-999,-99.99,,,-99.99,,2013-05-12 07:22:00,
2013-05-12 03:32:00,76.0,-99.9,30.00,ESE,120,3.0,5.0,-999,-99.99,,,-99.99,,2013-05-12 07:32:00,
2013-05-12 03:42:00,76.0,-99.9,29.99,SSE,147,4.0,6.0,-999,-99.99,,,-99.99,,2013-05-12 07:42:00,
2013-05-12 03:52:00,76.0,-99.9,29.99,SE,144,5.0,7.0,-999,-99.99,,,-99.99,,2013-05-12 07:52:00,
2013-05-12 04:02:00,76.0,-99.9,29.98,SSE,147,6.0,8.0,-999,-99.99,,,-99.99,,2013-05-12 08:02:00,
2013-05-12 04:11:00,76.0,-99.9,29.98,SE,146,6.0,8.0,-999,-99.99,,,-99.99,,2013-05-12 08:11:00,
2013-05-12 04:22:00,75.0,-99.9,29.98,SSE,151,5.0,6.0,-999,-99.99,,,-99.99,,2013-05-12 08:22:00,
2013-05-12 04:32:00,75.0,-99.9,29.97,SSE,147,6.0,8.0,-999,-99.99,,,-99.99,,2013-05-12 08:32:00,
2013-05-12 04:42:00,75.0,-99.9,29.94,SE,135,6.0,9.0,-999,-99.99,,,-99.99,,2013-05-12 08:42:00,
2013-05-12 04:53:00,75.0,-99.9,29.93,SE,139,6.0,9.0,-999,-99.99,,,-99.99,,2013-05-12 08:53:00,
2013-05-12 05:01:00,75.0,-99.9,29.93,SE,139,8.0,10.0,-999,-99.99,,,-99.99,,2013-05-12 09:01:00,
2013-05-12 05:11:00,74.0,-99.9,29.93,SE,143,6.0,11.0,-999,-99.99,,,-99.99,,2013-05-12 09:11:00,
2013-05-12 05:22:00,74.0,-99.9,29.93,SSE,147,5.0,10.0,-999,-99.99,,,-99.99,,2013-05-12 09:22:00,
2013-05-12 05:33:00,75.0,-99.9,29.93,SE,128,4.0,7.0,-999,-99.99,,,-99.99,,2013-05-12 09:33:00,
2013-05-12 05:43:00,74.0,-99.9,29.94,SE,129,3.0,8.0,-999,-99.99,,,-99.99,,2013-05-12 09:43:00,
2013-05-12 05:53:00,74.0,-99.9,29.96,South,172,3.0,5.0,-999,-99.99,,,-99.99,,2013-05-12 09:53:00,
2013-05-12 06:03:00,75.0,-99.9,29.97,West,273,0.0,2.0,-999,-99.99,,,-99.99,,2013-05-12 10:03:00,
2013-05-12 06:12:00,75.0,-99.9,29.98,SSW,193,2.0,4.0,-999,-99.99,,,-99.99,,2013-05-12 10:12:00,
2013-05-12 06:23:00,75.0,-99.9,29.98,South,191,1.0,2.0,-999,-99.99,,,-99.99,,2013-05-12 10:23:00,
2013-05-12 06:33:00,75.0,-99.9,29.98,South,185,1.0,2.0,-999,-99.99,,,-99.99,,2013-05-12 10:33:00,
2013-05-12 06:42:00,75.0,-99.9,29.98,SSE,157,2.0,4.0,-999,-99.99,,,-99.99,,2013-05-12 10:42:00,
2013-05-12 06:52:00,75.0,-99.9,29.99,SSE,160,2.0,2.0,-999,-99.99,,,-99.99,,2013-05-12 10:52:00,
2013-05-12 07:03:00,75.0,-99.9,29.99,SE,139,2.0,3.0,-999,-99.99,,,-99.99,,2013-05-12 11:03:00,
2013-05-12 07:12:00,75.0,-99.9,30.00,SE,128,2.0,3.0,-999,-99.99,,,-99.99,,2013-05-12 11:12:00,
2013-05-12 07:22:00,75.0,-99.9,30.00,South,185,2.0,3.0,-999,-99.99,,,-99.99,,2013-05-12 11:22:00,
2013-05-12 07:32:00,75.0,-99.9,30.00,SE,145,2.0,3.0,-999,-99.99,,,-99.99,,2013-05-12 11:32:00,
2013-05-12 07:42:00,75.0,-99.9,30.00,SE,146,3.0,4.0,-999,-99.99,,,-99.99,,2013-05-12 11:42:00,
2013-05-12 07:52:00,76.0,-99.9,30.00,SE,144,4.0,4.0,-999,-99.99,,,-99.99,,2013-05-12 11:52:00,
2013-05-12 08:02:00,76.0,-99.9,30.00,SSE,148,4.0,6.0,-999,-99.99,,,-99.99,,2013-05-12 12:02:00,
2013-05-12 08:11:00,76.0,-99.9,30.01,SSE,149,4.0,5.0,-999,-99.99,,,-99.99,,2013-05-12 12:11:00,
2013-05-12 08:22:00,76.0,-99.9,30.01,SE,144,5.0,6.0,-999,-99.99,,,-99.99,,2013-05-12 12:22:00,
2013-05-12 08:32:00,77.0,-99.9,30.02,SE,137,4.0,5.0,-999,-99.99,,,-99.99,,2013-05-12 12:32:00,
2013-05-12 08:42:00,78.0,-99.9,30.02,SE,126,2.0,4.0,-999,-99.99,,,-99.99,,2013-05-12 12:42:00,
2013-05-12 08:52:00,79.0,-99.9,30.02,SSE,156,2.0,4.0,-999,-99.99,,,-99.99,,2013-05-12 12:52:00,
2013-05-12 09:02:00,80.0,-99.9,30.02,SE,132,2.0,4.0,-999,-99.99,,,-99.99,,2013-05-12 13:02:00,
2013-05-12 09:11:00,82.0,-99.9,30.02,ESE,107,0.0,2.0,-999,-99.99,,,-99.99,,2013-05-12 13:11:00,
2013-05-12 09:21:00,80.0,-99.9,30.03,SW,229,2.0,4.0,-999,-99.99,,,-99.99,,2013-05-12 13:21:00,
2013-05-12 09:32:00,78.0,-99.9,30.02,WSW,249,4.0,6.0,-999,-99.99,,,-99.99,,2013-05-12 13:32:00,
2013-05-12 09:42:00,79.0,-99.9,30.03,WSW,249,3.0,4.0,-999,-99.99,,,-99.99,,2013-05-12 13:42:00,
2013-05-12 09:52:00,79.0,-99.9,30.02,SSW,210,1.0,6.0,-999,-99.99,,,-99.99,,2013-05-12 13:52:00,
2013-05-12 10:02:00,82.0,-99.9,30.02,SSW,212,2.0,5.0,-999,-99.99,,,-99.99,,2013-05-12 14:02:00,
2013-05-12 10:11:00,81.0,-99.9,30.03,WSW,243,4.0,8.0,-999,-99.99,,,-99.99,,2013-05-12 14:11:00,
2013-05-12 10:22:00,80.0,-99.9,30.03,WSW,238,6.0,10.0,-999,-99.99,,,-99.99,,2013-05-12 14:22:00,
2013-05-12 10:32:00,81.0,-99.9,30.03,WSW,253,6.0,9.0,-999,-99.99,,,-99.99,,2013-05-12 14:32:00,
2013-05-12 10:42:00,81.0,-99.9,30.03,WSW,240,6.0,10.0,-999,-99.99,,,-99.99,,2013-05-12 14:42:00,
2013-05-12 10:52:00,82.0,-99.9,30.03,SW,236,4.0,9.0,-999,-99.99,,,-99.99,,2013-05-12 14:52:00,
2013-05-12 11:01:00,82.0,-99.9,30.03,WSW,240,8.0,12.0,-999,-99.99,,,-99.99,,2013-05-12 15:01:00,
2013-05-12 11:11:00,82.0,-99.9,30.04,WSW,241,6.0,9.0,-999,-99.99,,,-99.99,,2013-05-12 15:11:00,
2013-05-12 11:21:00,82.0,-99.9,30.04,WSW,242,7.0,13.0,-999,-99.99,,,-99.99,,2013-05-12 15:21:00,
2013-05-12 11:34:00,82.0,-99.9,30.03,SW,225,6.0,13.0,-999,-99.99,,,-99.99,,2013-05-12 15:34:00,
2013-05-12 11:42:00,82.0,-99.9,30.03,WSW,240,8.0,11.0,-999,-99.99,,,-99.99,,2013-05-12 15:42:00,
2013-05-12 11:53:00,82.0,-99.9,30.04,WSW,240,7.0,10.0,-999,-99.99,,,-99.99,,2013-05-12 15:53:00,
2013-05-12 12:02:00,82.0,-99.9,30.03,WSW,243,8.0,15.0,-999,-99.99,,,-99.99,,2013-05-12 16:02:00,
2013-05-12 12:13:00,83.0,-99.9,30.03,SW,229,7.0,15.0,-999,-99.99,,,-99.99,,2013-05-12 16:13:00,
2013-05-12 12:23:00,82.0,-99.9,30.03,WSW,247,9.0,11.0,-999,-99.99,,,-99.99,,2013-05-12 16:23:00,
2013-05-12 12:33:00,83.0,-99.9,30.03,SW,234,6.0,11.0,-999,-99.99,,,-99.99,,2013-05-12 16:33:00,
2013-05-12 12:42:00,82.0,-99.9,30.03,WSW,249,9.0,12.0,-999,-99.99,,,-99.99,,2013-05-12 16:42:00,
2013-05-12 12:53:00,83.0,-99.9,30.03,SW,233,6.0,15.0,-999,-99.99,,,-99.99,,2013-05-12 16:53:00,
2013-05-12 13:02:00,83.0,-99.9,30.02,WSW,240,7.0,13.0,-999,-99.99,,,-99.99,,2013-05-12 17:02:00,
2013-05-12 13:12:00,84.0,-99.9,30.01,SW,223,5.0,10.0,-999,-99.99,,,-99.99,,2013-05-12 17:12:00,
2013-05-12 13:22:00,83.0,-99.9,30.01,SW,230,5.0,12.0,-999,-99.99,,,-99.99,,2013-05-12 17:22:00,
2013-05-12 13:32:00,83.0,-99.9,30.01,WSW,240,10.0,14.0,-999,-99.99,,,-99.99,,2013-05-12 17:32:00,
2013-05-12 13:42:00,83.0,-99.9,30.00,SW,232,7.0,15.0,-999,-99.99,,,-99.99,,2013-05-12 17:42:00,
2013-05-12 13:53:00,83.0,-99.9,30.00,SW,230,9.0,15.0,-999,-99.99,,,-99.99,,2013-05-12 17:53:00,
2013-05-12 14:01:00,83.0,-99.9,30.00,SW,231,7.0,14.0,-999,-99.99,,,-99.99,,2013-05-12 18:01:00,
2013-05-12 14:12:00,83.0,-99.9,30.00,WSW,243,9.0,15.0,-999,-99.99,,,-99.99,,2013-05-12 18:12:00,
2013-05-12 14:22:00,83.0,-99.9,30.00,WSW,253,13.0,17.0,-999,-99.99,,,-99.99,,2013-05-12 18:22:00,
2013-05-12 14:32:00,83.0,-99.9,30.00,West,260,10.0,16.0,-999,-99.99,,,-99.99,,2013-05-12 18:32:00,
2013-05-12 14:42:00,83.0,-99.9,30.00,West,262,14.0,18.0,-999,-99.99,,,-99.99,,2013-05-12 18:42:00,
2013-05-12 14:52:00,83.0,-99.9,30.00,WSW,250,13.0,15.0,-999,-99.99,,,-99.99,,2013-05-12 18:52:00,
2013-05-12 15:01:00,83.0,-99.9,29.99,WSW,254,13.0,15.0,-999,-99.99,,,-99.99,,2013-05-12 19:01:00,
2013-05-12 15:11:00,83.0,-99.9,30.00,West,263,11.0,16.0,-999,-99.99,,,-99.99,,2013-05-12 19:11:00,
2013-05-12 15:22:00,83.0,-99.9,30.00,West,266,13.0,15.0,-999,-99.99,,,-99.99,,2013-05-12 19:22:00,
2013-05-12 15:32:00,83.0,-99.9,29.99,West,262,12.0,16.0,-999,-99.99,,,-99.99,,2013-05-12 19:32:00,
2013-05-12 15:42:00,83.0,-99.9,30.00,WSW,252,14.0,17.0,-999,-99.99,,,-99.99,,2013-05-12 19:42:00,
2013-05-12 15:52:00,83.0,-99.9,30.00,West,264,12.0,17.0,-999,-99.99,,,-99.99,,2013-05-12 19:52:00,
2013-05-12 16:02:00,83.0,-99.9,29.99,West,266,14.0,19.0,-999,-99.99,,,-99.99,,2013-05-12 20:02:00,
2013-05-12 16:11:00,83.0,-99.9,29.99,WSW,256,12.0,16.0,-999,-99.99,,,-99.99,,2013-05-12 20:11:00,
2013-05-12 16:22:00,83.0,-99.9,29.99,West,261,13.0,16.0,-999,-99.99,,,-99.99,,2013-05-12 20:22:00,
2013-05-12 16:32:00,83.0,-99.9,29.99,West,273,14.0,17.0,-999,-99.99,,,-99.99,,2013-05-12 20:32:00,
2013-05-12 16:42:00,82.0,-99.9,29.98,West,268,12.0,16.0,-999,-99.99,,,-99.99,,2013-05-12 20:42:00,
2013-05-12 16:52:00,83.0,-99.9,29.98,WSW,257,11.0,17.0,-999,-99.99,,,-99.99,,2013-05-12 20:52:00,
2013-05-12 17:01:00,82.0,-99.9,29.98,West,262,11.0,16.0,-999,-99.99,,,-99.99,,2013-05-12 21:01:00,
2013-05-12 17:11:00,83.0,-99.9,29.98,West,272,13.0,15.0,-999,-99.99,,,-99.99,,2013-05-12 21:11:00,
2013-05-12 17:22:00,83.0,-99.9,29.98,West,268,12.0,16.0,-999,-99.99,,,-99.99,,2013-05-12 21:22:00,
2013-05-12 17:33:00,82.0,-99.9,29.98,West,270,11.0,17.0,-999,-99.99,,,-99.99,,2013-05-12 21:33:00,
2013-05-12 17:43:00,82.0,-99.9,29.98,West,265,13.0,15.0,-999,-99.99,,,-99.99,,2013-05-12 21:43:00,
2013-05-12 17:53:00,82.0,-99.9,29.98,West,265,13.0,15.0,-999,-99.99,,,-99.99,,2013-05-12 21:53:00,
2013-05-12 18:03:00,82.0,-99.9,29.98,West,266,11.0,15.0,-999,-99.99,,,-99.99,,2013-05-12 22:03:00,
2013-05-12 18:23:00,82.0,-99.9,29.98,West,273,11.0,19.0,-999,-99.99,,,-99.99,,2013-05-12 22:23:00,
2013-05-12 18:33:00,82.0,-99.9,29.99,WNW,286,13.0,17.0,-999,-99.99,,,-99.99,,2013-05-12 22:33:00,
2013-05-12 18:42:00,81.0,-99.9,29.99,West,265,13.0,16.0,-999,-99.99,,,-99.99,,2013-05-12 22:42:00,
2013-05-12 18:52:00,82.0,-99.9,29.99,West,271,12.0,15.0,-999,-99.99,,,-99.99,,2013-05-12 22:52:00,
2013-05-12 19:02:00,81.0,-99.9,29.99,WNW,283,13.0,15.0,-999,-99.99,,,-99.99,,2013-05-12 23:02:00,
2013-05-12 19:12:00,81.0,-99.9,29.99,West,269,11.0,14.0,-999,-99.99,,,-99.99,,2013-05-12 23:12:00,
2013-05-12 19:22:00,82.0,-99.9,29.99,WNW,292,11.0,13.0,-999,-99.99,,,-99.99,,2013-05-12 23:22:00,
2013-05-12 19:32:00,82.0,-99.9,29.99,WNW,283,9.0,12.0,-999,-99.99,,,-99.99,,2013-05-12 23:32:00,
2013-05-12 19:42:00,81.0,-99.9,29.99,West,278,11.0,13.0,-999,-99.99,,,-99.99,,2013-05-12 23:42:00,
2013-05-12 19:52:00,81.0,-99.9,30.00,West,278,10.0,12.0,-999,-99.99,,,-99.99,,2013-05-12 23:52:00,
2013-05-12 20:01:00,81.0,-99.9,30.00,West,279,9.0,11.0,-999,-99.99,,,-99.99,,2013-05-13 00:01:00,
2013-05-12 20:11:00,81.0,-99.9,30.01,West,281,9.0,12.0,-999,-99.99,,,-99.99,,2013-05-13 00:11:00,
2013-05-12 20:22:00,80.0,-99.9,30.01,WNW,287,10.0,12.0,-999,-99.99,,,-99.99,,2013-05-13 00:22:00,
2013-05-12 20:32:00,80.0,-99.9,30.01,WNW,283,9.0,11.0,-999,-99.99,,,-99.99,,2013-05-13 00:32:00,
2013-05-12 20:42:00,80.0,-99.9,30.02,WNW,284,8.0,11.0,-999,-99.99,,,-99.99,,2013-05-13 00:42:00,
2013-05-12 20:52:00,80.0,-99.9,30.02,WNW,289,7.0,10.0,-999,-99.99,,,-99.99,,2013-05-13 00:52:00,
2013-05-12 21:01:00,80.0,-99.9,30.02,West,278,7.0,10.0,-999,-99.99,,,-99.99,,2013-05-13 01:01:00,
2013-05-12 21:11:00,80.0,-99.9,30.03,West,280,7.0,9.0,-999,-99.99,,,-99.99,,2013-05-13 01:11:00,
2013-05-12 21:22:00,80.0,-99.9,30.03,WNW,282,7.0,10.0,-999,-99.99,,,-99.99,,2013-05-13 01:22:00,
2013-05-12 21:32:00,80.0,-99.9,30.03,West,281,8.0,10.0,-999,-99.99,,,-99.99,,2013-05-13 01:32:00,
2013-05-12 21:42:00,80.0,-99.9,30.04,WNW,283,8.0,10.0,-999,-99.99,,,-99.99,,2013-05-13 01:42:00,
2013-05-12 21:52:00,80.0,-99.9,30.04,WNW,284,8.0,10.0,-999,-99.99,,,-99.99,,2013-05-13 01:52:00,
2013-05-12 22:02:00,80.0,-99.9,30.04,WNW,285,7.0,10.0,-999,-99.99,,,-99.99,,2013-05-13 02:02:00,
2013-05-12 22:11:00,79.0,-99.9,30.04,West,274,6.0,9.0,-999,-99.99,,,-99.99,,2013-05-13 02:11:00,
2013-05-12 22:21:00,79.0,-99.9,30.04,WNW,288,7.0,9.0,-999,-99.99,,,-99.99,,2013-05-13 02:21:00,
2013-05-12 22:32:00,79.0,-99.9,30.04,WNW,290,7.0,10.0,-999,-99.99,,,-99.99,,2013-05-13 02:32:00,
2013-05-12 22:42:00,79.0,-99.9,30.04,WNW,282,6.0,8.0,-999,-99.99,,,-99.99,,2013-05-13 02:42:00,
2013-05-12 22:52:00,79.0,-99.9,30.04,West,281,6.0,8.0,-999,-99.99,,,-99.99,,2013-05-13 02:52:00,
2013-05-12 23:02:00,79.0,-99.9,30.05,West,276,6.0,7.0,-999,-99.99,,,-99.99,,2013-05-13 03:02:00,
2013-05-12 23:11:00,79.0,-99.9,30.05,WNW,291,7.0,9.0,-999,-99.99,,,-99.99,,2013-05-13 03:11:00,
2013-05-12 23:22:00,79.0,-99.9,30.05,WNW,292,6.0,8.0,-999,-99.99,,,-99.99,,2013-05-13 03:22:00,
2013-05-12 23:33:00,79.0,-99.9,30.05,WNW,297,6.0,8.0,-999,-99.99,,,-99.99,,2013-05-13 03:33:00,
2013-05-12 23:42:00,79.0,-99.9,30.05,WNW,290,5.0,7.0,-999,-99.99,,,-99.99,,2013-05-13 03:42:00,
2013-05-12 23:53:00,79.0,-99.9,30.05,WNW,291,5.0,6.0,-999,-99.99,,,-99.99,,2013-05-13 03:53:00,